[[{"header":{"parameterUnit":"m.s-1","parameterCategory":1,"la1":30.2991,"la2":30.254,"lo1":-89.0895,"lo2":-89.0444,"dy":0.0017,"dx":0.0017,"nx":28,"ny":28,"refTime":"2024-02-02T09:00:00:Z","depth":0,"parameterNumber":2,"parameterNumberName":"U-component_of_WINDS"},"data":[0,0,0,0,0,0,0,0,0,0,0,0,0,0,0,0,0,0,0,0,0,0,0,0,0,0,0,0,0,0,0,0,0,0,0,0,0,0,0,0,0,0,0,0,0,0,0,0,0,0,0,0,0,0,0,0,0,0,-0.7463,-0.7464,0,-0.7497,-0.7497,-0.7497,-0.7483,-0.7482,-0.7481,-0.748,-0.7517,-0.7519,-0.7521,0,0,0,0,0,0,0,0,0,0,0,0,0,-0.7389,-0.7391,-0.7463,-0.7464,-0.7464,-0.7497,-0.7497,-0.7498,-0.7483,-0.7482,-0.7481,-0.748,-0.7517,-0.7519,-0.7521,0,0,0,0,0,0,0,0,0,0,0,0,0,-0.7422,-0.7391,-0.7463,-0.7461,-0.7461,-0.7496,-0.7497,-0.7498,-0.7483,-0.7482,-0.7481,-0.7479,-0.7516,-0.7519,-0.7521,-0.7562,0,0,-0.7529,-0.753,0,0,0,0,0,0,0,0,-0.742,-0.7425,-0.7461,-0.7461,-0.7461,-0.7484,-0.7485,-0.7519,-0.7483,-0.7475,-0.748,-0.7479,-0.7508,-0.7511,-0.752,-0.7564,-0.7566,-0.753,-0.7531,-0.7532,-0.7533,0,0,0,0,0,0,0,-0.7418,-0.7423,-0.7477,-0.7461,-0.7461,-0.7459,-0.7462,-0.7491,-0.7498,-0.7475,-0.7474,-0.7478,-0.7507,-0.7517,-0.7521,-0.7566,-0.7529,-0.7532,-0.7533,-0.7535,-0.7646,-0.7647,0,0,0,0,0,0,-0.7415,-0.7422,-0.7476,-0.7478,-0.7437,-0.7461,-0.7465,-0.7478,-0.7497,-0.7499,-0.7479,-0.7478,-0.7513,-0.7518,-0.7522,-0.7572,-0.7532,-0.7535,-0.7536,-0.7645,-0.7646,-0.7648,0,0,0,0,0,0,-0.7414,-0.742,-0.7474,-0.7449,-0.7456,-0.7464,-0.7479,-0.7479,-0.7489,-0.75,-0.7502,-0.7488,-0.7513,-0.7518,-0.7552,-0.7573,-0.7536,-0.7538,-0.7643,-0.7645,-0.7647,-0.7671,0,0,0,0,0,0,-0.7412,-0.742,-0.7435,-0.745,-0.7457,-0.7504,-0.748,-0.7481,-0.7494,-0.7491,-0.7509,-0.7511,-0.7512,-0.7548,-0.7555,-0.7576,-0.754,-0.7641,-0.7644,-0.7646,-0.7669,-0.7674,-0.7678,0,0,0,0,0,-0.7409,-0.7441,-0.7436,-0.7443,-0.7476,-0.7505,-0.7509,-0.7509,-0.7495,-0.7511,-0.7518,-0.751,-0.7569,-0.7552,-0.7559,-0.7581,-0.764,-0.7643,-0.7646,-0.7667,-0.7673,-0.7678,0,0,0,0,0,0,-0.7431,-0.7443,-0.7438,-0.7475,-0.7489,-0.7502,-0.7522,-0.7516,-0.7535,-0.7532,-0.7532,-0.7536,-0.7571,-0.7579,-0.756,-0.7622,-0.7602,-0.7607,-0.7616,-0.7622,-0.7626,-0.7625,-0.7543,0,0,0,0,0,-0.7439,-0.746,-0.7471,-0.7503,-0.751,-0.7515,-0.7527,-0.7526,-0.754,-0.7546,-0.7556,-0.7571,-0.7593,-0.7608,-0.7628,-0.7669,-0.7673,-0.7688,-0.7693,-0.7697,-0.7701,-0.7724,-0.7731,-0.7658,-0.7658,-0.7658,0,0,-0.7458,-0.7468,-0.7481,-0.7507,-0.7518,-0.754,-0.752,-0.7545,-0.7562,-0.755,-0.7583,-0.759,-0.7607,-0.7645,-0.7662,-0.7653,-0.7722,-0.7701,-0.7704,-0.7706,-0.7728,-0.7735,-0.7741,-0.766,-0.766,-0.7659,0,0,-0.7505,-0.7514,-0.7542,-0.7552,-0.7567,-0.757,-0.7577,-0.7591,-0.7595,-0.7627,-0.7619,-0.764,-0.7677,-0.769,-0.7701,-0.7751,-0.7745,-0.7757,-0.7783,-0.7805,-0.7811,-0.7816,-0.7835,-0.7841,-0.7762,-0.7762,-0.7762,0,-0.7527,-0.756,-0.7557,-0.7582,-0.7594,-0.7583,-0.7612,-0.7623,-0.7645,-0.7653,-0.7642,-0.7689,-0.7699,-0.774,-0.7752,-0.7761,-0.7769,-0.7756,-0.781,-0.7815,-0.782,-0.7838,-0.7845,-0.7763,-0.7763,-0.7763,-0.7763,0,-0.7587,-0.7609,-0.763,-0.765,-0.7664,-0.7691,-0.7693,-0.7708,-0.7705,-0.7709,-0.7742,-0.7754,-0.7777,-0.7786,-0.7784,-0.7827,-0.7821,-0.781,-0.7791,-0.7829,-0.7846,-0.7852,-0.7765,-0.7765,-0.7764,-0.7764,0,0,-0.765,-0.7666,-0.7674,-0.7683,-0.7699,-0.7717,-0.7743,-0.7764,-0.7777,-0.7792,-0.7815,-0.7846,-0.7836,-0.7849,-0.7848,-0.7867,-0.7906,-0.7854,-0.7854,-0.7864,-0.7955,-0.7964,-0.7972,-0.7901,-0.7903,-0.7904,-0.7954,0,-0.7698,-0.7743,-0.7741,-0.7784,-0.7805,-0.7794,-0.7817,-0.783,-0.7834,-0.7853,-0.7858,-0.7881,-0.7865,-0.7873,-0.7891,-0.7898,-0.7925,-0.7894,-0.7924,-0.7925,-0.7922,-0.798,-0.799,-0.8037,-0.796,-0.7961,-0.7962,0,-0.7761,-0.7777,-0.7822,-0.7833,-0.7842,-0.7863,-0.7882,-0.79,-0.7914,-0.7916,-0.7929,-0.7925,-0.7952,-0.7931,-0.7969,-0.7948,-0.796,-0.7965,-0.7966,-0.7971,-0.7947,-0.7988,-0.8052,-0.806,-0.7972,-0.7971,-0.7971,0,-0.7804,-0.7836,-0.7867,-0.7875,-0.7889,-0.7904,-0.7911,-0.7923,-0.7936,-0.7953,-0.7961,-0.7981,-0.7993,-0.8009,-0.801,-0.7994,-0.8049,-0.8027,-0.8052,-0.8052,-0.8065,-0.8065,-0.8134,-0.8071,-0.807,-0.807,-0.807,0,-0.7859,-0.7887,-0.7886,-0.7906,-0.7937,-0.7934,-0.7965,-0.797,-0.7981,-0.8002,-0.7993,-0.8013,-0.8013,-0.8033,-0.8034,-0.8066,-0.8071,-0.8074,-0.8074,-0.8075,-0.8075,-0.8085,-0.8082,-0.8072,-0.8072,-0.8071,-0.8071,0,-0.7913,-0.7913,-0.7947,-0.7956,-0.796,-0.7982,-0.7991,-0.801,-0.8012,-0.8039,-0.8045,-0.8049,-0.8073,-0.8075,-0.8102,-0.8103,-0.8142,-0.8138,-0.8137,-0.8137,-0.8162,-0.816,-0.8241,-0.8252,-0.818,-0.818,-0.8181,0,-0.7949,-0.797,-0.7982,-0.7995,-0.8002,-0.8022,-0.8035,-0.8032,-0.8046,-0.8062,-0.8079,-0.8101,-0.8119,-0.8157,-0.8163,-0.8184,-0.8182,-0.8208,-0.8185,-0.8186,-0.8184,-0.8183,-0.8185,-0.8214,-0.8214,-0.8215,-0.8216,0,-0.8014,-0.8012,-0.803,-0.8048,-0.8063,-0.8077,-0.809,-0.8101,-0.81,-0.8116,-0.8139,-0.8153,-0.818,-0.8202,-0.8222,-0.823,-0.8223,-0.8222,-0.823,-0.8232,-0.8231,-0.8233,-0.8151,-0.8221,-0.8221,-0.822,-0.822,-0.822,-0.8061,-0.8079,-0.809,-0.811,-0.8119,-0.8132,-0.8149,-0.8153,-0.8172,-0.8193,-0.819,-0.8216,-0.8229,-0.8255,-0.8264,-0.8285,-0.8276,-0.8286,-0.8289,-0.8292,-0.8295,-0.8226,-0.8288,-0.8288,-0.8288,-0.8288,-0.8288,0,-0.8126,-0.8132,-0.815,-0.8168,-0.8184,-0.8174,-0.8188,-0.8202,-0.8225,-0.8236,-0.8253,-0.828,-0.8301,-0.8309,-0.8329,-0.8345,-0.8342,-0.835,-0.835,-0.8352,-0.8301,-0.8294,-0.8352,-0.8352,-0.8352,-0.8352,-0.8352,-0.8352,-0.8162,-0.8193,-0.8192,-0.8227,-0.8233,-0.8257,-0.8266,-0.8278,-0.8287,-0.8317,-0.8334,-0.8338,-0.8348,-0.8369,-0.8389,-0.839,-0.8399,-0.8409,-0.841,-0.8362,-0.8356,-0.835,-0.8343,-0.8411,-0.8411,-0.8459,-0.846,-0.846]},{"header":{"parameterUnit":"m.s-1","parameterCategory":1,"la1":30.2991,"la2":30.254,"lo1":-89.0895,"lo2":-89.0444,"dy":0.0017,"dx":0.0017,"nx":28,"ny":28,"refTime":"2024-02-02T09:00:00:Z","depth":0,"parameterNumber":3,"parameterNumberName":"V-component_of_WINDS"},"data":[0,0,0,0,0,0,0,0,0,0,0,0,0,0,0,0,0,0,0,0,0,0,0,0,0,0,0,0,0,0,0,0,0,0,0,0,0,0,0,0,0,0,0,0,0,0,0,0,0,0,0,0,0,0,0,0,0,0,0.7728,0.7729,0,0.7804,0.7805,0.7806,0.7814,0.7814,0.7813,0.7812,0.7891,0.7894,0.7896,0,0,0,0,0,0,0,0,0,0,0,0,0,0.7591,0.7593,0.7728,0.7729,0.773,0.7804,0.7805,0.7806,0.7815,0.7814,0.7813,0.7812,0.789,0.7893,0.7897,0,0,0,0,0,0,0,0,0,0,0,0,0,0.7657,0.7594,0.7728,0.7743,0.7745,0.7804,0.7805,0.7807,0.7815,0.7814,0.7812,0.7811,0.7889,0.7893,0.7897,0.7946,0,0,0.791,0.7912,0,0,0,0,0,0,0,0,0.7653,0.7662,0.774,0.7742,0.7745,0.7799,0.7786,0.7854,0.7815,0.7788,0.7812,0.7811,0.7861,0.7868,0.7884,0.795,0.7953,0.791,0.7913,0.7915,0.7916,0,0,0,0,0,0,0,0.7649,0.7659,0.7758,0.7741,0.7744,0.7746,0.7755,0.7799,0.783,0.7791,0.7791,0.78,0.7862,0.788,0.7886,0.7955,0.791,0.7914,0.7917,0.7918,0.8065,0.8066,0,0,0,0,0,0,0.7641,0.7655,0.7756,0.7761,0.7695,0.775,0.7759,0.7783,0.783,0.7836,0.7801,0.78,0.7874,0.7881,0.7889,0.7951,0.7915,0.7919,0.7921,0.8064,0.8065,0.8067,0,0,0,0,0,0,0.7638,0.765,0.7753,0.7708,0.7721,0.7753,0.778,0.7785,0.7803,0.7838,0.7844,0.7814,0.7873,0.7883,0.7932,0.7953,0.7921,0.7924,0.8062,0.8064,0.8066,0.8073,0,0,0,0,0,0,0.7634,0.7649,0.7668,0.7709,0.7724,0.7795,0.7781,0.7787,0.781,0.781,0.7851,0.7857,0.7873,0.7926,0.7936,0.7959,0.7928,0.806,0.8063,0.8065,0.8071,0.8075,0.8079,0,0,0,0,0,0.7629,0.7667,0.7669,0.7681,0.7748,0.7796,0.7804,0.7822,0.7812,0.7831,0.7854,0.7856,0.7949,0.7931,0.7943,0.7966,0.8059,0.8062,0.8065,0.807,0.8075,0.8079,0,0,0,0,0,0,0.7629,0.7673,0.7675,0.7727,0.7757,0.7797,0.7822,0.7826,0.7861,0.7859,0.7879,0.7888,0.7937,0.7956,0.7935,0.8017,0.8003,0.8009,0.8002,0.8007,0.8011,0.8006,0.7931,0,0,0,0,0,0.7634,0.7669,0.7706,0.7748,0.7763,0.779,0.7811,0.7822,0.7855,0.7868,0.7894,0.7925,0.7962,0.7986,0.8021,0.8074,0.8083,0.8096,0.81,0.8103,0.8108,0.8138,0.8144,0.8077,0.8077,0.8077,0,0,0.7647,0.7675,0.7696,0.7748,0.7773,0.7809,0.7801,0.7839,0.7866,0.7873,0.7921,0.7942,0.7978,0.803,0.8053,0.8048,0.8128,0.8107,0.8109,0.8112,0.8141,0.8148,0.8153,0.8079,0.8079,0.8078,0,0,0.7688,0.7712,0.775,0.7776,0.7813,0.7831,0.784,0.7879,0.7893,0.7941,0.7947,0.798,0.8042,0.8068,0.809,0.8141,0.8144,0.8151,0.8171,0.82,0.8205,0.821,0.8229,0.8235,0.8156,0.8156,0.8156,0,0.7699,0.7753,0.777,0.7808,0.7831,0.7839,0.7878,0.7902,0.7949,0.7965,0.7958,0.8036,0.8062,0.8119,0.8132,0.8149,0.816,0.8147,0.8203,0.8208,0.8213,0.8231,0.8238,0.8157,0.8157,0.8157,0.8157,0,0.7764,0.7802,0.7828,0.7873,0.79,0.7938,0.7961,0.7986,0.7994,0.8012,0.8062,0.8092,0.8134,0.8148,0.8157,0.8208,0.8203,0.8199,0.8186,0.822,0.8237,0.8244,0.8158,0.8158,0.8157,0.8157,0,0,0.7808,0.7862,0.7871,0.7892,0.7934,0.7964,0.8002,0.8043,0.8064,0.8096,0.813,0.8183,0.8179,0.8204,0.8215,0.824,0.828,0.8234,0.8235,0.8242,0.8338,0.8341,0.8349,0.8282,0.8283,0.8284,0.8335,0,0.7854,0.7923,0.794,0.7999,0.8034,0.8042,0.8076,0.8106,0.8124,0.8157,0.8177,0.8214,0.8207,0.8222,0.8247,0.8269,0.8299,0.8266,0.8314,0.8315,0.8305,0.8358,0.8361,0.8408,0.8342,0.8343,0.8344,0,0.7918,0.7951,0.8014,0.8052,0.8067,0.8097,0.8136,0.8167,0.8201,0.8213,0.824,0.8249,0.829,0.8274,0.8331,0.8308,0.8328,0.8342,0.8345,0.835,0.8332,0.8366,0.8423,0.843,0.8355,0.8354,0.8353,0,0.7944,0.8005,0.805,0.8068,0.8113,0.8134,0.8154,0.8186,0.821,0.8244,0.826,0.8298,0.8319,0.8349,0.8368,0.8355,0.8424,0.841,0.8435,0.8435,0.845,0.8449,0.8512,0.8462,0.8462,0.8462,0.8462,0,0.7995,0.8033,0.8063,0.8091,0.8134,0.8153,0.8195,0.8215,0.8244,0.8277,0.8286,0.8316,0.8339,0.8373,0.8388,0.8433,0.8443,0.8454,0.8457,0.8453,0.8452,0.8468,0.8465,0.8464,0.8463,0.8463,0.8463,0,0.8031,0.8053,0.8103,0.8141,0.8152,0.8182,0.8215,0.8243,0.8261,0.8302,0.8313,0.8342,0.8382,0.8404,0.8454,0.8464,0.8515,0.8517,0.8504,0.8506,0.853,0.8528,0.8606,0.8618,0.8559,0.856,0.856,0,0.8063,0.8092,0.8134,0.8156,0.8176,0.8212,0.8236,0.8255,0.828,0.8321,0.8344,0.8384,0.8418,0.8481,0.8507,0.8546,0.8549,0.8573,0.8555,0.855,0.855,0.8548,0.8552,0.8577,0.8578,0.8578,0.8578,0,0.8116,0.8125,0.816,0.8198,0.8226,0.8257,0.8287,0.8305,0.833,0.8357,0.8398,0.8424,0.8475,0.8516,0.8556,0.8577,0.8582,0.8584,0.8592,0.8589,0.858,0.8586,0.8514,0.8582,0.8582,0.8582,0.8581,0.8581,0.8152,0.8179,0.8212,0.825,0.8275,0.8303,0.8332,0.8353,0.8387,0.8431,0.844,0.8483,0.8517,0.8572,0.8593,0.8628,0.8623,0.8635,0.8638,0.8641,0.8642,0.8574,0.8635,0.8635,0.8635,0.8635,0.8635,0,0.8207,0.8229,0.8263,0.8305,0.8335,0.8337,0.8371,0.8396,0.8434,0.8464,0.8497,0.8544,0.8583,0.8612,0.8652,0.8674,0.8678,0.8684,0.8683,0.8688,0.8644,0.8633,0.8681,0.8681,0.8681,0.8681,0.8681,0.8681,0.8239,0.8285,0.8298,0.8356,0.8377,0.842,0.8439,0.8465,0.849,0.8542,0.8575,0.8593,0.8623,0.8665,0.8701,0.8709,0.8723,0.873,0.8737,0.8696,0.8691,0.8686,0.8676,0.8732,0.8733,0.8779,0.8779,0.878]}]]